Overview Statistics Trail Chart Weather Telemetry Raw packets
 

This is the latest recevied weather packets stored in our database for station/object KD4EED. If no packets are shown the sender has not sent any weather packets the latest 10 day(s).

<< 43 44 45 46 47 48 49 >>
Time Temp. Humidity Pressure Rain* Wind** Luminosity Snow
1788388117 28.33° C 51% 1012.4 hPa - - 447 W/m² -
1788387816 28.33° C 51% 1012.4 hPa - - 460 W/m² -
1788387510 28.33° C 50% 1012.4 hPa - - 472 W/m² -
1788387209 28.33° C 49% 1012.5 hPa - - 484 W/m² -
1788386905 28.33° C 48% 1012.5 hPa - - 498 W/m² -
1788386605 28.89° C 47% 1012.6 hPa - - 515 W/m² -
1788386301 28.89° C 46% 1012.4 hPa - - 527 W/m² -
1788386001 29.44° C 44% 1012.4 hPa - - 540 W/m² -
1788385697 30° C 44% 1012.6 hPa - - 549 W/m² -
1788385395 30° C 44% 1012.6 hPa - - 555 W/m² -
1788385091 30.56° C 43% 1012.6 hPa - - 570 W/m² -
1788384786 30.56° C 42% 1012.6 hPa - - 576 W/m² -
1788384485 30° C 44% 1012.7 hPa - - 585 W/m² -
1788384203 30° C 44% 1013 hPa - - 595 W/m² -
1788383878 30° C 43% 1012.8 hPa - - 603 W/m² -
1788383574 30° C 44% 1012.8 hPa - - 612 W/m² -
1788383273 29.44° C 46% 1012.8 hPa - - 617 W/m² -
1788382968 28.89° C 46% 1013 hPa - - 618 W/m² -
1788382666 28.89° C 45% 1013 hPa - - 617 W/m² -
1788382362 28.89° C 46% 1013 hPa - - 621 W/m² -
1788382057 28.89° C 47% 1013.4 hPa - - 625 W/m² -
1788381752 28.89° C 46% 1013.3 hPa - - 628 W/m² -
1788381447 28.89° C 46% 1013.4 hPa - - 631 W/m² -
1788381142 28.89° C 46% 1013.1 hPa - - 629 W/m² -
1788380842 28.33° C 48% 1013.4 hPa - - 628 W/m² -

* Rain since midnight (hover to see other rain measurements)
** Current wind speed in m/s (hover to see current wind gust speed)